Time,TemperatureF,DewpointF,PressureIn,WindDirection,WindDirectionDegrees,WindSpeedMPH,WindSpeedGustMPH,Humidity,HourlyPrecipIn,Conditions,Clouds,dailyrainin,SoftwareType,DateUTC
2013-09-15 00:02:00,59.3,46.3,29.99,WSW,242,5.0,6.0,62,0.00,,,0.00,Wunderground v.1.15,2013-09-15 05:02:00,
2013-09-15 00:08:00,59.3,46.3,29.99,WSW,241,5.0,6.0,62,0.00,,,0.00,Wunderground v.1.15,2013-09-15 05:08:00,
2013-09-15 00:14:00,59.0,46.4,29.98,WSW,241,3.0,6.0,63,0.00,,,0.00,Wunderground v.1.15,2013-09-15 05:14:00,
2013-09-15 00:19:00,58.6,46.0,29.98,WSW,241,3.0,6.0,63,0.00,,,0.00,Wunderground v.1.15,2013-09-15 05:19:00,
2013-09-15 00:25:00,58.4,45.8,29.98,WSW,250,4.0,5.0,63,0.00,,,0.00,Wunderground v.1.15,2013-09-15 05:25:00,
2013-09-15 00:31:00,58.1,46.0,29.98,WSW,250,3.0,4.0,64,0.00,,,0.00,Wunderground v.1.15,2013-09-15 05:31:00,
2013-09-15 00:37:00,57.9,45.8,29.98,WSW,250,3.0,10.0,64,0.00,,,0.00,Wunderground v.1.15,2013-09-15 05:37:00,
2013-09-15 00:43:00,57.7,46.0,29.98,WSW,250,3.0,10.0,65,0.00,,,0.00,Wunderground v.1.15,2013-09-15 05:43:00,
2013-09-15 00:49:00,57.6,45.9,29.98,WSW,250,2.0,10.0,65,0.00,,,0.00,Wunderground v.1.15,2013-09-15 05:49:00,
2013-09-15 00:55:00,57.3,45.6,29.98,WSW,250,2.0,10.0,65,0.00,,,0.00,Wunderground v.1.15,2013-09-15 05:55:00,
2013-09-15 01:01:00,57.2,45.9,29.98,WSW,250,2.0,10.0,66,0.00,,,0.00,Wunderground v.1.15,2013-09-15 06:01:00,
2013-09-15 01:06:00,57.3,46.0,29.97,WSW,250,2.0,10.0,66,0.00,,,0.00,Wunderground v.1.15,2013-09-15 06:06:00,
2013-09-15 01:12:00,57.5,45.8,29.97,WSW,250,2.0,10.0,65,0.00,,,0.00,Wunderground v.1.15,2013-09-15 06:12:00,
2013-09-15 01:18:00,57.8,46.1,29.98,WSW,250,3.0,10.0,65,0.00,,,0.00,Wunderground v.1.15,2013-09-15 06:18:00,
2013-09-15 01:24:00,58.2,46.1,29.98,WSW,250,4.0,10.0,64,0.00,,,0.00,Wunderground v.1.15,2013-09-15 06:24:00,
2013-09-15 01:29:00,58.4,46.3,29.98,WSW,250,4.0,10.0,64,0.00,,,0.00,Wunderground v.1.15,2013-09-15 06:29:00,
2013-09-15 01:35:00,58.3,46.2,29.98,WSW,250,3.0,10.0,64,0.00,,,0.00,Wunderground v.1.15,2013-09-15 06:35:00,
2013-09-15 01:41:00,58.1,46.0,29.98,WSW,250,2.0,10.0,64,0.00,,,0.00,Wunderground v.1.15,2013-09-15 06:41:00,
2013-09-15 01:47:00,58.1,46.4,29.98,WSW,250,2.0,10.0,65,0.00,,,0.00,Wunderground v.1.15,2013-09-15 06:47:00,
2013-09-15 01:53:00,58.1,46.4,29.98,WSW,250,2.0,10.0,65,0.00,,,0.00,Wunderground v.1.15,2013-09-15 06:53:00,
2013-09-15 01:59:00,58.0,46.3,29.98,WSW,250,2.0,10.0,65,0.00,,,0.00,Wunderground v.1.15,2013-09-15 06:59:00,
2013-09-15 02:05:00,57.9,46.6,29.98,WSW,250,2.0,10.0,66,0.00,,,0.00,Wunderground v.1.15,2013-09-15 07:05:00,
2013-09-15 02:10:00,58.0,46.7,29.98,WSW,250,2.0,10.0,66,0.00,,,0.00,Wunderground v.1.15,2013-09-15 07:10:00,
2013-09-15 02:16:00,58.2,46.9,29.97,WSW,250,2.0,10.0,66,0.00,,,0.00,Wunderground v.1.15,2013-09-15 07:16:00,
2013-09-15 02:21:00,58.5,46.8,29.97,WSW,250,3.0,10.0,65,0.00,,,0.00,Wunderground v.1.15,2013-09-15 07:21:00,
2013-09-15 02:27:00,58.9,47.2,29.97,WSW,250,3.0,10.0,65,0.00,,,0.00,Wunderground v.1.15,2013-09-15 07:27:00,
2013-09-15 02:32:00,59.1,46.9,29.97,WSW,250,4.0,10.0,64,0.00,,,0.00,Wunderground v.1.15,2013-09-15 07:32:00,
2013-09-15 02:38:00,59.3,47.5,29.97,WSW,250,3.0,10.0,65,0.00,,,0.00,Wunderground v.1.15,2013-09-15 07:38:00,
2013-09-15 02:44:00,59.4,47.6,29.97,WSW,250,3.0,10.0,65,0.00,,,0.00,Wunderground v.1.15,2013-09-15 07:44:00,
2013-09-15 02:50:00,59.5,47.7,29.97,WSW,250,4.0,10.0,65,0.00,,,0.00,Wunderground v.1.15,2013-09-15 07:50:00,
2013-09-15 02:55:00,59.5,47.7,29.96,WSW,250,4.0,10.0,65,0.00,,,0.00,Wunderground v.1.15,2013-09-15 07:55:00,
2013-09-15 03:01:00,59.5,48.1,29.96,WSW,250,4.0,5.0,66,0.00,,,0.00,Wunderground v.1.15,2013-09-15 08:01:00,
2013-09-15 03:07:00,59.7,48.3,29.96,WSW,250,4.0,10.0,66,0.00,,,0.00,Wunderground v.1.15,2013-09-15 08:07:00,
2013-09-15 03:13:00,60.0,48.6,29.96,West,264,4.0,10.0,66,0.00,,,0.00,Wunderground v.1.15,2013-09-15 08:13:00,
2013-09-15 03:19:00,60.3,48.5,29.97,WSW,257,5.0,10.0,65,0.00,,,0.00,Wunderground v.1.15,2013-09-15 08:19:00,
2013-09-15 03:25:00,60.5,48.7,29.97,West,267,5.0,10.0,65,0.00,,,0.00,Wunderground v.1.15,2013-09-15 08:25:00,
2013-09-15 03:31:00,60.5,49.1,29.96,WSW,255,4.0,10.0,66,0.00,,,0.00,Wunderground v.1.15,2013-09-15 08:31:00,
2013-09-15 03:36:00,60.5,49.1,29.96,West,264,4.0,10.0,66,0.00,,,0.00,Wunderground v.1.15,2013-09-15 08:36:00,
2013-09-15 03:42:00,60.5,49.1,29.96,West,263,4.0,10.0,66,0.00,,,0.00,Wunderground v.1.15,2013-09-15 08:42:00,
2013-09-15 03:48:00,60.8,49.4,29.96,West,273,5.0,10.0,66,0.00,,,0.00,Wunderground v.1.15,2013-09-15 08:48:00,
2013-09-15 03:54:00,60.9,49.5,29.96,WNW,286,5.0,10.0,66,0.00,,,0.00,Wunderground v.1.15,2013-09-15 08:54:00,
2013-09-15 03:59:00,61.0,49.6,29.96,West,273,5.0,10.0,66,0.00,,,0.00,Wunderground v.1.15,2013-09-15 08:59:00,
2013-09-15 04:05:00,61.3,49.4,29.96,WSW,255,5.0,10.0,65,0.00,,,0.00,Wunderground v.1.15,2013-09-15 09:05:00,
2013-09-15 04:11:00,61.5,49.6,29.96,West,261,6.0,10.0,65,0.00,,,0.00,Wunderground v.1.15,2013-09-15 09:11:00,
2013-09-15 04:17:00,61.6,49.7,29.96,West,265,6.0,10.0,65,0.00,,,0.00,Wunderground v.1.15,2013-09-15 09:17:00,
2013-09-15 04:23:00,61.6,49.7,29.95,West,269,6.0,10.0,65,0.00,,,0.00,Wunderground v.1.15,2013-09-15 09:23:00,
2013-09-15 04:29:00,61.9,50.0,29.96,West,259,7.0,10.0,65,0.00,,,0.00,Wunderground v.1.15,2013-09-15 09:29:00,
2013-09-15 04:35:00,62.2,49.9,29.96,West,265,7.0,10.0,64,0.00,,,0.00,Wunderground v.1.15,2013-09-15 09:35:00,
2013-09-15 04:40:00,62.3,50.0,29.96,West,281,7.0,10.0,64,0.00,,,0.00,Wunderground v.1.15,2013-09-15 09:40:00,
2013-09-15 04:46:00,62.5,50.2,29.96,West,269,7.0,11.0,64,0.00,,,0.00,Wunderground v.1.15,2013-09-15 09:46:00,
2013-09-15 04:52:00,62.5,49.7,29.96,West,272,8.0,10.0,63,0.00,,,0.00,Wunderground v.1.15,2013-09-15 09:52:00,
2013-09-15 04:58:00,62.5,49.7,29.96,West,265,8.0,10.0,63,0.00,,,0.00,Wunderground v.1.15,2013-09-15 09:58:00,
2013-09-15 05:03:00,62.5,50.2,29.96,WNW,292,7.0,10.0,64,0.00,,,0.00,Wunderground v.1.15,2013-09-15 10:03:00,
2013-09-15 05:09:00,62.5,50.2,29.95,WSW,258,7.0,10.0,64,0.00,,,0.00,Wunderground v.1.15,2013-09-15 10:09:00,
2013-09-15 05:15:00,62.6,49.8,29.96,West,281,8.0,10.0,63,0.00,,,0.00,Wunderground v.1.15,2013-09-15 10:15:00,
2013-09-15 05:21:00,62.6,49.8,29.96,WNW,296,8.0,10.0,63,0.00,,,0.00,Wunderground v.1.15,2013-09-15 10:21:00,
2013-09-15 05:26:00,62.5,49.7,29.96,West,271,8.0,10.0,63,0.00,,,0.00,Wunderground v.1.15,2013-09-15 10:26:00,
2013-09-15 05:32:00,62.4,49.6,29.96,WSW,248,8.0,10.0,63,0.00,,,0.00,Wunderground v.1.15,2013-09-15 10:32:00,
2013-09-15 05:38:00,62.3,50.0,29.96,WSW,250,8.0,10.0,64,0.00,,,0.00,Wunderground v.1.15,2013-09-15 10:38:00,
2013-09-15 05:44:00,62.2,49.9,29.96,West,267,8.0,14.0,64,0.00,,,0.00,Wunderground v.1.15,2013-09-15 10:44:00,
2013-09-15 05:50:00,62.2,49.9,29.96,WSW,257,8.0,14.0,64,0.00,,,0.00,Wunderground v.1.15,2013-09-15 10:50:00,
2013-09-15 05:56:00,62.1,49.8,29.96,West,276,9.0,14.0,64,0.00,,,0.00,Wunderground v.1.15,2013-09-15 10:56:00,
2013-09-15 06:02:00,61.9,50.0,29.96,West,277,8.0,10.0,65,0.00,,,0.00,Wunderground v.1.15,2013-09-15 11:02:00,
2013-09-15 06:07:00,61.9,50.0,29.96,West,273,8.0,10.0,65,0.00,,,0.00,Wunderground v.1.15,2013-09-15 11:07:00,
2013-09-15 06:13:00,61.8,50.3,29.96,West,272,8.0,10.0,66,0.00,,,0.00,Wunderground v.1.15,2013-09-15 11:13:00,
2013-09-15 06:19:00,61.8,50.3,29.96,West,273,8.0,10.0,66,0.00,,,0.00,Wunderground v.1.15,2013-09-15 11:19:00,
2013-09-15 06:25:00,61.9,50.0,29.96,West,262,8.0,10.0,65,0.00,,,0.00,Wunderground v.1.15,2013-09-15 11:25:00,
2013-09-15 06:30:00,62.0,50.1,29.95,West,267,9.0,10.0,65,0.00,,,0.00,Wunderground v.1.15,2013-09-15 11:30:00,
2013-09-15 06:36:00,62.0,50.1,29.95,West,259,9.0,12.0,65,0.00,,,0.00,Wunderground v.1.15,2013-09-15 11:36:00,
2013-09-15 06:42:00,61.9,50.4,29.96,West,265,8.0,10.0,66,0.00,,,0.00,Wunderground v.1.15,2013-09-15 11:42:00,
2013-09-15 06:48:00,61.9,50.4,29.96,WSW,256,8.0,10.0,66,0.00,,,0.00,Wunderground v.1.15,2013-09-15 11:48:00,
2013-09-15 06:53:00,61.9,50.0,29.96,West,265,8.0,10.0,65,0.00,,,0.00,Wunderground v.1.15,2013-09-15 11:53:00,
2013-09-15 06:59:00,62.0,50.1,29.96,West,273,8.0,13.0,65,0.00,,,0.00,Wunderground v.1.15,2013-09-15 11:59:00,
2013-09-15 07:05:00,62.0,50.1,29.96,WNW,293,8.0,10.0,65,0.00,,,0.00,Wunderground v.1.15,2013-09-15 12:05:00,
2013-09-15 07:11:00,62.1,50.2,29.96,West,276,9.0,10.0,65,0.00,,,0.00,Wunderground v.1.15,2013-09-15 12:11:00,
2013-09-15 07:17:00,62.0,50.1,29.97,WSW,254,8.0,12.0,65,0.00,,,0.00,Wunderground v.1.15,2013-09-15 12:17:00,
2013-09-15 07:23:00,62.1,50.2,29.96,West,259,8.0,11.0,65,0.00,,,0.00,Wunderground v.1.15,2013-09-15 12:23:00,
2013-09-15 07:29:00,62.2,50.3,29.96,WNW,282,9.0,11.0,65,0.00,,,0.00,Wunderground v.1.15,2013-09-15 12:29:00,
2013-09-15 07:34:00,62.3,50.4,29.96,West,264,9.0,11.0,65,0.00,,,0.00,Wunderground v.1.15,2013-09-15 12:34:00,
2013-09-15 07:40:00,62.5,50.6,29.96,West,265,8.0,11.0,65,0.00,,,0.00,Wunderground v.1.15,2013-09-15 12:40:00,
2013-09-15 07:46:00,62.7,50.8,29.96,West,271,8.0,13.0,65,0.00,,,0.00,Wunderground v.1.15,2013-09-15 12:46:00,
2013-09-15 07:52:00,63.0,50.6,29.96,West,261,9.0,11.0,64,0.00,,,0.00,Wunderground v.1.15,2013-09-15 12:52:00,
2013-09-15 07:58:00,63.1,50.7,29.96,West,269,8.0,11.0,64,0.00,,,0.00,Wunderground v.1.15,2013-09-15 12:58:00,
2013-09-15 08:04:00,63.1,50.7,29.96,West,272,8.0,10.0,64,0.00,,,0.00,Wunderground v.1.15,2013-09-15 13:04:00,
2013-09-15 08:10:00,63.2,50.8,29.96,West,275,8.0,8.0,64,0.00,,,0.00,Wunderground v.1.15,2013-09-15 13:10:00,
2013-09-15 08:16:00,63.3,51.3,29.96,West,277,9.0,14.0,65,0.00,,,0.00,Wunderground v.1.15,2013-09-15 13:16:00,
2013-09-15 08:21:00,63.5,51.5,29.96,West,266,8.0,10.0,65,0.00,,,0.00,Wunderground v.1.15,2013-09-15 13:21:00,
2013-09-15 08:27:00,63.9,51.5,29.96,West,264,8.0,10.0,64,0.00,,,0.00,Wunderground v.1.15,2013-09-15 13:27:00,
2013-09-15 08:33:00,64.1,51.7,29.95,West,270,9.0,10.0,64,0.00,,,0.00,Wunderground v.1.15,2013-09-15 13:33:00,
2013-09-15 08:39:00,64.3,51.9,29.96,WSW,257,9.0,14.0,64,0.00,,,0.00,Wunderground v.1.15,2013-09-15 13:39:00,
2013-09-15 08:44:00,64.5,52.0,29.96,West,266,10.0,12.0,64,0.00,,,0.00,Wunderground v.1.15,2013-09-15 13:44:00,
2013-09-15 08:50:00,64.6,52.1,29.96,WNW,285,10.0,10.0,64,0.00,,,0.00,Wunderground v.1.15,2013-09-15 13:50:00,
2013-09-15 08:56:00,64.8,51.9,29.96,West,280,10.0,12.0,63,0.00,,,0.00,Wunderground v.1.15,2013-09-15 13:56:00,
2013-09-15 09:01:00,64.9,52.0,29.96,West,279,10.0,11.0,63,0.00,,,0.00,Wunderground v.1.15,2013-09-15 14:01:00,
2013-09-15 09:07:00,65.2,52.3,29.96,West,269,10.0,11.0,63,0.00,,,0.00,Wunderground v.1.15,2013-09-15 14:07:00,
2013-09-15 09:13:00,65.5,52.6,29.97,WNW,286,10.0,10.0,63,0.00,,,0.00,Wunderground v.1.15,2013-09-15 14:13:00,
2013-09-15 09:19:00,65.7,52.8,29.97,WNW,290,9.0,11.0,63,0.00,,,0.00,Wunderground v.1.15,2013-09-15 14:19:00,
2013-09-15 09:24:00,65.8,52.4,29.96,WSW,258,9.0,10.0,62,0.00,,,0.00,Wunderground v.1.15,2013-09-15 14:24:00,
2013-09-15 09:30:00,66.0,52.6,29.96,West,275,9.0,9.0,62,0.00,,,0.00,Wunderground v.1.15,2013-09-15 14:30:00,
2013-09-15 09:36:00,66.1,52.7,29.97,West,272,8.0,10.0,62,0.00,,,0.00,Wunderground v.1.15,2013-09-15 14:36:00,
2013-09-15 09:42:00,66.3,52.9,29.97,West,272,7.0,10.0,62,0.00,,,0.00,Wunderground v.1.15,2013-09-15 14:42:00,
2013-09-15 09:47:00,66.6,52.7,29.97,West,281,7.0,10.0,61,0.00,,,0.00,Wunderground v.1.15,2013-09-15 14:47:00,
2013-09-15 09:53:00,67.1,53.2,29.97,WNW,288,8.0,10.0,61,0.00,,,0.00,Wunderground v.1.15,2013-09-15 14:53:00,
2013-09-15 09:59:00,67.4,53.0,29.97,West,273,7.0,10.0,60,0.00,,,0.00,Wunderground v.1.15,2013-09-15 14:59:00,
2013-09-15 10:05:00,67.5,53.1,29.98,WNW,300,7.0,10.0,60,0.00,,,0.00,Wunderground v.1.15,2013-09-15 15:05:00,
2013-09-15 10:11:00,67.6,53.7,29.98,WNW,286,6.0,10.0,61,0.00,,,0.00,Wunderground v.1.15,2013-09-15 15:11:00,
2013-09-15 10:17:00,68.0,54.0,29.98,WNW,286,6.0,10.0,61,0.00,,,0.00,Wunderground v.1.15,2013-09-15 15:17:00,
2013-09-15 10:23:00,68.4,54.0,29.98,WNW,290,7.0,10.0,60,0.00,,,0.00,Wunderground v.1.15,2013-09-15 15:23:00,
2013-09-15 10:28:00,68.8,54.3,29.98,WNW,291,7.0,10.0,60,0.00,,,0.00,Wunderground v.1.15,2013-09-15 15:28:00,
2013-09-15 10:34:00,69.9,54.9,29.97,West,277,7.0,10.0,59,0.00,,,0.00,Wunderground v.1.15,2013-09-15 15:34:00,
2013-09-15 10:40:00,70.5,55.0,29.97,West,279,7.0,7.0,58,0.00,,,0.00,Wunderground v.1.15,2013-09-15 15:40:00,
2013-09-15 10:46:00,71.3,55.8,29.97,WNW,289,7.0,10.0,58,0.00,,,0.00,Wunderground v.1.15,2013-09-15 15:46:00,
2013-09-15 10:51:00,71.7,55.2,29.97,WNW,288,7.0,10.0,56,0.00,,,0.00,Wunderground v.1.15,2013-09-15 15:51:00,
2013-09-15 10:57:00,72.2,55.6,29.97,WNW,292,7.0,10.0,56,0.00,,,0.00,Wunderground v.1.15,2013-09-15 15:57:00,
2013-09-15 11:03:00,72.9,56.3,29.97,WNW,293,8.0,10.0,56,0.00,,,0.00,Wunderground v.1.15,2013-09-15 16:03:00,
2013-09-15 11:08:00,74.4,56.7,29.97,NW,315,9.0,11.0,54,0.00,,,0.00,Wunderground v.1.15,2013-09-15 16:08:00,
2013-09-15 11:14:00,75.2,56.4,29.96,WNW,282,10.0,15.0,52,0.00,,,0.00,Wunderground v.1.15,2013-09-15 16:14:00,
2013-09-15 11:20:00,75.9,57.0,29.96,West,271,10.0,10.0,52,0.00,,,0.00,Wunderground v.1.15,2013-09-15 16:20:00,
2013-09-15 11:26:00,76.4,57.5,29.96,NW,305,10.0,11.0,52,0.00,,,0.00,Wunderground v.1.15,2013-09-15 16:26:00,
2013-09-15 11:31:00,76.8,56.8,29.96,WNW,290,10.0,12.0,50,0.00,,,0.00,Wunderground v.1.15,2013-09-15 16:31:00,
2013-09-15 11:37:00,77.6,58.0,29.95,WNW,282,9.0,13.0,51,0.00,,,0.00,Wunderground v.1.15,2013-09-15 16:37:00,
2013-09-15 11:43:00,78.2,57.5,29.95,WNW,288,11.0,13.0,49,0.00,,,0.00,Wunderground v.1.15,2013-09-15 16:43:00,
2013-09-15 11:49:00,78.8,58.0,29.96,WNW,289,10.0,13.0,49,0.00,,,0.00,Wunderground v.1.15,2013-09-15 16:49:00,
2013-09-15 11:54:00,80.1,58.6,29.95,NW,322,10.0,15.0,48,0.00,,,0.00,Wunderground v.1.15,2013-09-15 16:54:00,
2013-09-15 12:00:00,80.4,58.3,29.95,NW,311,10.0,10.0,47,0.00,,,0.00,Wunderground v.1.15,2013-09-15 17:00:00,
2013-09-15 12:07:00,80.5,58.4,29.95,NW,311,10.0,15.0,47,0.00,,,0.00,Wunderground v.1.15,2013-09-15 17:07:00,
2013-09-15 12:13:00,79.9,59.0,29.95,NW,305,10.0,12.0,49,0.00,,,0.00,Wunderground v.1.15,2013-09-15 17:13:00,
2013-09-15 12:19:00,79.6,58.8,29.96,NW,317,10.0,18.0,49,0.00,,,0.00,Wunderground v.1.15,2013-09-15 17:19:00,
2013-09-15 12:25:00,79.3,59.0,29.96,NW,313,10.0,11.0,50,0.00,,,0.00,Wunderground v.1.15,2013-09-15 17:25:00,
2013-09-15 12:31:00,79.9,58.5,29.96,WNW,300,9.0,10.0,48,0.00,,,0.00,Wunderground v.1.15,2013-09-15 17:31:00,
2013-09-15 12:36:00,79.7,59.4,29.97,WNW,302,10.0,13.0,50,0.00,,,0.00,Wunderground v.1.15,2013-09-15 17:36:00,
2013-09-15 12:42:00,79.1,58.3,29.98,WNW,299,11.0,11.0,49,0.00,,,0.00,Wunderground v.1.15,2013-09-15 17:42:00,
2013-09-15 12:48:00,78.8,58.6,29.98,NW,321,9.0,11.0,50,0.00,,,0.00,Wunderground v.1.15,2013-09-15 17:48:00,
2013-09-15 12:54:00,78.6,59.0,29.98,NW,307,8.0,14.0,51,0.00,,,0.00,Wunderground v.1.15,2013-09-15 17:54:00,
2013-09-15 12:59:00,78.5,59.4,29.97,NW,320,9.0,14.0,52,0.00,,,0.00,Wunderground v.1.15,2013-09-15 17:59:00,
2013-09-15 13:06:00,78.5,59.9,29.98,West,279,7.0,13.0,53,0.00,,,0.00,Wunderground v.1.15,2013-09-15 18:06:00,
2013-09-15 13:12:00,78.0,60.0,29.98,NW,310,6.0,10.0,54,0.00,,,0.00,Wunderground v.1.15,2013-09-15 18:12:00,
2013-09-15 13:17:00,77.3,60.4,29.97,NW,313,7.0,10.0,56,0.00,,,0.00,Wunderground v.1.15,2013-09-15 18:17:00,
2013-09-15 13:23:00,75.0,61.5,29.98,WNW,296,6.0,10.0,63,0.00,,,0.00,Wunderground v.1.15,2013-09-15 18:23:00,
2013-09-15 13:29:00,72.4,62.5,29.98,NW,324,4.0,10.0,71,0.00,,,0.01,Wunderground v.1.15,2013-09-15 18:29:00,
2013-09-15 13:35:00,70.7,63.1,29.97,NW,324,3.0,10.0,77,0.00,,,0.01,Wunderground v.1.15,2013-09-15 18:35:00,
2013-09-15 13:40:00,69.8,63.0,29.97,WNW,300,2.0,10.0,79,0.00,,,0.01,Wunderground v.1.15,2013-09-15 18:40:00,
2013-09-15 13:46:00,68.7,63.3,29.96,West,281,4.0,10.0,83,0.00,,,0.01,Wunderground v.1.15,2013-09-15 18:46:00,
2013-09-15 13:52:00,67.9,63.2,29.95,West,271,5.0,10.0,85,0.00,,,0.02,Wunderground v.1.15,2013-09-15 18:52:00,
2013-09-15 13:57:00,67.4,63.1,29.95,West,267,5.0,10.0,86,0.07,,,0.03,Wunderground v.1.15,2013-09-15 18:57:00,
2013-09-15 14:02:00,67.2,63.5,29.95,WSW,253,5.0,10.0,88,0.07,,,0.03,Wunderground v.1.15,2013-09-15 19:02:00,
2013-09-15 14:08:00,67.2,63.5,29.93,WSW,253,5.0,10.0,88,0.05,,,0.03,Wunderground v.1.15,2013-09-15 19:08:00,
2013-09-15 14:13:00,67.2,63.5,29.94,West,266,5.0,10.0,88,0.00,,,0.03,Wunderground v.1.15,2013-09-15 19:13:00,
2013-09-15 14:18:00,67.4,63.7,29.94,West,271,5.0,10.0,88,0.00,,,0.03,Wunderground v.1.15,2013-09-15 19:18:00,
2013-09-15 14:19:00,67.4,63.7,29.94,West,279,5.0,10.0,88,0.00,,,0.03,Wunderground v.1.15,2013-09-15 19:19:00,
2013-09-15 14:25:00,67.5,63.8,29.94,West,279,4.0,10.0,88,0.00,,,0.03,Wunderground v.1.15,2013-09-15 19:25:00,
2013-09-15 14:31:00,67.5,63.8,29.95,NW,304,4.0,4.0,88,0.00,,,0.03,Wunderground v.1.15,2013-09-15 19:31:00,
2013-09-15 14:37:00,67.8,64.1,29.95,NW,306,3.0,10.0,88,0.00,,,0.03,Wunderground v.1.15,2013-09-15 19:37:00,
2013-09-15 14:42:00,68.1,64.4,29.96,NW,317,1.0,10.0,88,0.00,,,0.03,Wunderground v.1.15,2013-09-15 19:42:00,
2013-09-15 14:49:00,68.6,64.6,29.96,NE,42,1.0,10.0,87,0.00,,,0.03,Wunderground v.1.15,2013-09-15 19:49:00,
2013-09-15 14:55:00,68.7,64.7,29.96,ENE,65,1.0,10.0,87,0.00,,,0.03,Wunderground v.1.15,2013-09-15 19:55:00,
2013-09-15 15:00:00,68.8,64.8,29.97,NNW,333,1.0,1.0,87,0.00,,,0.03,Wunderground v.1.15,2013-09-15 20:00:00,
2013-09-15 15:06:00,69.0,64.6,29.98,NE,38,1.0,10.0,86,0.00,,,0.03,Wunderground v.1.15,2013-09-15 20:06:00,
2013-09-15 15:12:00,69.1,64.7,29.98,ENE,78,1.0,10.0,86,0.00,,,0.03,Wunderground v.1.15,2013-09-15 20:12:00,
2013-09-15 15:18:00,69.2,64.8,29.99,NW,319,1.0,10.0,86,0.00,,,0.03,Wunderground v.1.15,2013-09-15 20:18:00,
2013-09-15 15:23:00,69.2,64.5,29.98,NNW,331,1.0,10.0,85,0.00,,,0.03,Wunderground v.1.15,2013-09-15 20:23:00,
2013-09-15 15:29:00,69.4,64.7,29.98,NNW,332,1.0,10.0,85,0.00,,,0.03,Wunderground v.1.15,2013-09-15 20:29:00,
2013-09-15 15:35:00,69.5,64.8,29.98,North,5,2.0,10.0,85,0.00,,,0.03,Wunderground v.1.15,2013-09-15 20:35:00,
2013-09-15 15:41:00,69.9,64.8,29.98,NNW,330,2.0,10.0,84,0.00,,,0.03,Wunderground v.1.15,2013-09-15 20:41:00,
2013-09-15 15:46:00,70.6,65.2,29.98,NW,322,3.0,10.0,83,0.00,,,0.03,Wunderground v.1.15,2013-09-15 20:46:00,
2013-09-15 15:52:00,70.9,64.8,29.98,NW,322,4.0,10.0,81,0.00,,,0.03,Wunderground v.1.15,2013-09-15 20:52:00,
2013-09-15 15:58:00,71.1,64.6,29.98,NW,319,4.0,10.0,80,0.00,,,0.03,Wunderground v.1.15,2013-09-15 20:58:00,
2013-09-15 16:04:00,71.1,64.3,29.98,NNW,333,4.0,10.0,79,0.00,,,0.03,Wunderground v.1.15,2013-09-15 21:04:00,
2013-09-15 16:09:00,71.1,63.9,29.98,NW,316,4.0,10.0,78,0.00,,,0.03,Wunderground v.1.15,2013-09-15 21:09:00,
2013-09-15 16:15:00,71.2,64.4,29.98,NW,323,3.0,10.0,79,0.00,,,0.03,Wunderground v.1.15,2013-09-15 21:15:00,
2013-09-15 16:21:00,71.2,64.0,29.98,NE,38,2.0,5.0,78,0.00,,,0.03,Wunderground v.1.15,2013-09-15 21:21:00,
2013-09-15 16:27:00,71.1,64.3,29.98,ENE,62,2.0,10.0,79,0.00,,,0.03,Wunderground v.1.15,2013-09-15 21:27:00,
2013-09-15 16:33:00,70.9,64.1,29.99,NNE,22,2.0,10.0,79,0.00,,,0.03,Wunderground v.1.15,2013-09-15 21:33:00,
2013-09-15 16:39:00,70.9,64.1,29.99,ENE,74,1.0,10.0,79,0.00,,,0.03,Wunderground v.1.15,2013-09-15 21:39:00,
2013-09-15 16:45:00,70.8,64.3,29.99,NE,45,1.0,10.0,80,0.00,,,0.03,Wunderground v.1.15,2013-09-15 21:45:00,
2013-09-15 16:50:00,70.7,64.6,29.99,NE,49,2.0,2.0,81,0.00,,,0.03,Wunderground v.1.15,2013-09-15 21:50:00,
2013-09-15 16:56:00,70.6,64.1,30.00,NE,46,1.0,10.0,80,0.00,,,0.03,Wunderground v.1.15,2013-09-15 21:56:00,
2013-09-15 17:02:00,70.6,64.5,30.00,NE,47,2.0,10.0,81,0.00,,,0.03,Wunderground v.1.15,2013-09-15 22:02:00,
2013-09-15 17:08:00,70.4,64.3,30.00,NNE,18,2.0,10.0,81,0.00,,,0.03,Wunderground v.1.15,2013-09-15 22:08:00,
2013-09-15 17:13:00,70.2,64.1,30.00,NE,55,3.0,10.0,81,0.00,,,0.03,Wunderground v.1.15,2013-09-15 22:13:00,
2013-09-15 17:19:00,70.0,64.2,30.00,North,9,3.0,10.0,82,0.00,,,0.03,Wunderground v.1.15,2013-09-15 22:19:00,
2013-09-15 17:25:00,69.8,64.1,30.01,NE,56,3.0,10.0,82,0.00,,,0.03,Wunderground v.1.15,2013-09-15 22:25:00,
2013-09-15 17:31:00,69.5,63.8,30.01,NE,40,4.0,10.0,82,0.00,,,0.03,Wunderground v.1.15,2013-09-15 22:31:00,
2013-09-15 17:36:00,69.4,63.7,30.01,NE,53,3.0,10.0,82,0.00,,,0.03,Wunderground v.1.15,2013-09-15 22:36:00,
2013-09-15 17:42:00,69.3,63.9,30.01,NE,51,2.0,10.0,83,0.00,,,0.03,Wunderground v.1.15,2013-09-15 22:42:00,
2013-09-15 17:48:00,69.2,63.8,30.01,NE,46,2.0,10.0,83,0.00,,,0.03,Wunderground v.1.15,2013-09-15 22:48:00,
2013-09-15 17:53:00,69.1,63.7,30.02,ENE,57,3.0,10.0,83,0.00,,,0.03,Wunderground v.1.15,2013-09-15 22:53:00,
2013-09-15 17:59:00,69.0,63.6,30.02,NE,51,3.0,10.0,83,0.00,,,0.03,Wunderground v.1.15,2013-09-15 22:59:00,
2013-09-15 18:05:00,68.8,63.4,30.02,NE,41,3.0,10.0,83,0.00,,,0.03,Wunderground v.1.15,2013-09-15 23:05:00,
2013-09-15 18:11:00,68.8,63.4,30.03,NE,50,3.0,10.0,83,0.00,,,0.03,Wunderground v.1.15,2013-09-15 23:11:00,
2013-09-15 18:16:00,68.7,63.7,30.03,NE,51,2.0,10.0,84,0.00,,,0.03,Wunderground v.1.15,2013-09-15 23:16:00,
2013-09-15 18:22:00,68.6,63.6,30.03,NE,53,2.0,10.0,84,0.00,,,0.03,Wunderground v.1.15,2013-09-15 23:22:00,
2013-09-15 18:28:00,68.5,63.8,30.03,North,10,1.0,10.0,85,0.00,,,0.03,Wunderground v.1.15,2013-09-15 23:28:00,
2013-09-15 18:34:00,68.5,63.8,30.03,NE,44,1.0,10.0,85,0.00,,,0.03,Wunderground v.1.15,2013-09-15 23:34:00,
2013-09-15 18:39:00,68.4,63.7,30.03,NE,43,1.0,10.0,85,0.00,,,0.03,Wunderground v.1.15,2013-09-15 23:39:00,
2013-09-15 18:45:00,68.3,63.6,30.04,NE,46,1.0,10.0,85,0.00,,,0.03,Wunderground v.1.15,2013-09-15 23:45:00,
2013-09-15 18:51:00,68.1,63.8,30.04,NE,44,1.0,10.0,86,0.00,,,0.04,Wunderground v.1.15,2013-09-15 23:51:00,
2013-09-15 18:57:00,67.9,63.9,30.04,NE,44,1.0,10.0,87,0.00,,,0.04,Wunderground v.1.15,2013-09-15 23:57:00,
2013-09-15 19:03:00,67.7,64.0,30.04,NE,44,0.0,10.0,88,0.00,,,0.04,Wunderground v.1.15,2013-09-16 00:03:00,
2013-09-15 19:09:00,67.5,63.8,30.04,NE,44,1.0,10.0,88,0.00,,,0.04,Wunderground v.1.15,2013-09-16 00:09:00,
2013-09-15 19:15:00,67.4,64.0,30.03,NE,44,1.0,10.0,89,0.00,,,0.04,Wunderground v.1.15,2013-09-16 00:15:00,
2013-09-15 19:20:00,67.3,63.9,30.04,NE,49,1.0,10.0,89,0.00,,,0.04,Wunderground v.1.15,2013-09-16 00:20:00,
2013-09-15 19:26:00,67.2,63.8,30.04,NE,54,2.0,10.0,89,0.00,,,0.04,Wunderground v.1.15,2013-09-16 00:26:00,
2013-09-15 19:31:00,67.2,63.8,30.04,ENE,65,2.0,10.0,89,0.00,,,0.04,Wunderground v.1.15,2013-09-16 00:31:00,
2013-09-15 19:37:00,67.1,63.7,30.04,ENE,65,1.0,10.0,89,0.00,,,0.04,Wunderground v.1.15,2013-09-16 00:37:00,
2013-09-15 19:42:00,67.0,64.0,30.05,ENE,60,2.0,10.0,90,0.00,,,0.05,Wunderground v.1.15,2013-09-16 00:42:00,
2013-09-15 19:48:00,66.8,63.8,30.05,NE,55,2.0,10.0,90,0.00,,,0.05,Wunderground v.1.15,2013-09-16 00:48:00,
2013-09-15 19:54:00,66.7,64.0,30.06,NE,46,3.0,10.0,91,0.00,,,0.05,Wunderground v.1.15,2013-09-16 00:54:00,
2013-09-15 20:00:00,66.5,63.8,30.05,ENE,70,4.0,4.0,91,0.00,,,0.05,Wunderground v.1.15,2013-09-16 01:00:00,
2013-09-15 20:05:00,66.3,63.6,30.05,ENE,58,4.0,10.0,91,0.00,,,0.05,Wunderground v.1.15,2013-09-16 01:05:00,
2013-09-15 20:11:00,66.1,63.7,30.06,ESE,102,3.0,10.0,92,0.00,,,0.05,Wunderground v.1.15,2013-09-16 01:11:00,
2013-09-15 20:17:00,65.9,63.2,30.06,ESE,102,5.0,10.0,91,0.00,,,0.05,Wunderground v.1.15,2013-09-16 01:17:00,
2013-09-15 20:22:00,65.8,63.1,30.06,East,82,6.0,10.0,91,0.00,,,0.05,Wunderground v.1.15,2013-09-16 01:22:00,
2013-09-15 20:28:00,65.5,62.8,30.07,ENE,65,6.0,10.0,91,0.00,,,0.05,Wunderground v.1.15,2013-09-16 01:28:00,
2013-09-15 20:34:00,65.3,62.3,30.08,East,85,6.0,10.0,90,0.00,,,0.05,Wunderground v.1.15,2013-09-16 01:34:00,
2013-09-15 20:40:00,64.9,61.9,30.08,East,98,7.0,14.0,90,0.00,,,0.05,Wunderground v.1.15,2013-09-16 01:40:00,
2013-09-15 20:45:00,64.4,61.4,30.08,East,94,8.0,14.0,90,0.00,,,0.05,Wunderground v.1.15,2013-09-16 01:45:00,
2013-09-15 20:51:00,64.0,61.0,30.09,East,83,8.0,9.0,90,0.00,,,0.05,Wunderground v.1.15,2013-09-16 01:51:00,
2013-09-15 20:57:00,63.8,60.8,30.09,East,98,7.0,10.0,90,0.00,,,0.05,Wunderground v.1.15,2013-09-16 01:57:00,
2013-09-15 21:03:00,63.6,60.9,30.09,ENE,72,7.0,10.0,91,0.00,,,0.05,Wunderground v.1.15,2013-09-16 02:03:00,
2013-09-15 21:09:00,63.4,60.7,30.09,ENE,78,6.0,10.0,91,0.00,,,0.05,Wunderground v.1.15,2013-09-16 02:09:00,
2013-09-15 21:15:00,63.4,60.7,30.10,ENE,59,6.0,10.0,91,0.00,,,0.05,Wunderground v.1.15,2013-09-16 02:15:00,
2013-09-15 21:21:00,63.3,60.6,30.10,East,96,5.0,10.0,91,0.00,,,0.05,Wunderground v.1.15,2013-09-16 02:21:00,
2013-09-15 21:26:00,63.2,60.5,30.10,ESE,115,5.0,10.0,91,0.00,,,0.05,Wunderground v.1.15,2013-09-16 02:26:00,
2013-09-15 21:32:00,63.1,60.7,30.10,ESE,109,6.0,10.0,92,0.00,,,0.05,Wunderground v.1.15,2013-09-16 02:32:00,
2013-09-15 21:38:00,63.1,60.7,30.11,East,98,6.0,10.0,92,0.00,,,0.05,Wunderground v.1.15,2013-09-16 02:38:00,
2013-09-15 21:44:00,62.9,60.5,30.11,NE,53,6.0,10.0,92,0.00,,,0.05,Wunderground v.1.15,2013-09-16 02:44:00,
2013-09-15 21:49:00,62.8,60.4,30.11,East,92,6.0,10.0,92,0.00,,,0.05,Wunderground v.1.15,2013-09-16 02:49:00,
2013-09-15 21:55:00,62.8,60.4,30.11,East,82,6.0,10.0,92,0.00,,,0.05,Wunderground v.1.15,2013-09-16 02:55:00,
2013-09-15 22:01:00,62.7,60.3,30.12,East,99,6.0,10.0,92,0.00,,,0.05,Wunderground v.1.15,2013-09-16 03:01:00,
2013-09-15 22:07:00,62.6,60.2,30.12,East,84,6.0,10.0,92,0.00,,,0.05,Wunderground v.1.15,2013-09-16 03:07:00,
2013-09-15 22:13:00,62.5,59.5,30.12,East,98,8.0,12.0,90,0.00,,,0.05,Wunderground v.1.15,2013-09-16 03:13:00,
2013-09-15 22:19:00,62.3,59.3,30.12,ESE,106,9.0,12.0,90,0.00,,,0.05,Wunderground v.1.15,2013-09-16 03:19:00,
2013-09-15 22:24:00,62.2,59.2,30.13,East,94,8.0,10.0,90,0.00,,,0.05,Wunderground v.1.15,2013-09-16 03:24:00,
2013-09-15 22:30:00,62.0,58.7,30.13,East,101,7.0,7.0,89,0.00,,,0.05,Wunderground v.1.15,2013-09-16 03:30:00,
2013-09-15 22:36:00,62.0,58.7,30.13,East,88,7.0,10.0,89,0.00,,,0.05,Wunderground v.1.15,2013-09-16 03:36:00,
2013-09-15 22:42:00,61.8,58.5,30.13,ESE,111,7.0,11.0,89,0.00,,,0.05,Wunderground v.1.15,2013-09-16 03:42:00,
2013-09-15 22:48:00,61.7,58.4,30.13,East,92,7.0,11.0,89,0.00,,,0.05,Wunderground v.1.15,2013-09-16 03:48:00,
2013-09-15 22:54:00,61.6,58.3,30.14,East,99,8.0,10.0,89,0.00,,,0.05,Wunderground v.1.15,2013-09-16 03:54:00,
2013-09-15 23:00:00,61.6,58.0,30.14,ESE,107,8.0,8.0,88,0.00,,,0.05,Wunderground v.1.15,2013-09-16 04:00:00,
2013-09-15 23:01:00,61.6,58.3,30.14,East,96,8.0,10.0,89,0.00,,,0.05,Wunderground v.1.15,2013-09-16 04:01:00,
2013-09-15 23:02:00,61.6,58.3,30.14,ENE,76,8.0,10.0,89,0.00,,,0.05,Wunderground v.1.15,2013-09-16 04:02:00,
2013-09-15 23:03:00,61.5,58.2,30.14,ESE,108,8.0,10.0,89,0.00,,,0.05,Wunderground v.1.15,2013-09-16 04:03:00,
2013-09-15 23:04:00,61.5,58.2,30.14,ESE,119,7.0,10.0,89,0.00,,,0.05,Wunderground v.1.15,2013-09-16 04:04:00,
2013-09-15 23:10:00,61.4,58.1,30.14,ESE,103,7.0,10.0,89,0.00,,,0.05,Wunderground v.1.15,2013-09-16 04:10:00,
2013-09-15 23:15:00,61.4,58.1,30.14,ESE,107,8.0,10.0,89,0.00,,,0.05,Wunderground v.1.15,2013-09-16 04:15:00,
2013-09-15 23:20:00,61.4,58.1,30.14,ESE,105,9.0,9.0,89,0.00,,,0.05,Wunderground v.1.15,2013-09-16 04:20:00,
2013-09-15 23:26:00,61.4,58.1,30.14,ESE,115,9.0,11.0,89,0.00,,,0.05,Wunderground v.1.15,2013-09-16 04:26:00,
2013-09-15 23:32:00,61.3,58.0,30.14,East,96,8.0,10.0,89,0.00,,,0.05,Wunderground v.1.15,2013-09-16 04:32:00,
2013-09-15 23:37:00,61.3,58.0,30.14,East,97,7.0,10.0,89,0.00,,,0.05,Wunderground v.1.15,2013-09-16 04:37:00,
2013-09-15 23:43:00,61.2,57.9,30.14,East,89,7.0,10.0,89,0.00,,,0.05,Wunderground v.1.15,2013-09-16 04:43:00,
2013-09-15 23:49:00,61.2,57.9,30.15,ESE,116,8.0,16.0,89,0.00,,,0.05,Wunderground v.1.15,2013-09-16 04:49:00,
2013-09-15 23:55:00,61.2,57.9,30.15,ESE,114,9.0,13.0,89,0.00,,,0.05,Wunderground v.1.15,2013-09-16 04:55:00,